"Pseudo-MPEC" for P10Guh9

Created 2018 Feb 22 11:18:09 UT using Find_Orb

Astrometry:
     P10Guh9  C2018 01 11Q\Astrometry._$DH(ly'-]UWs(Cliva7B.sP?G(!/D:jH88*_keF51
     P10Guh9  C2018 01 11lOA##FHlw0]sVI7WQlAua1wSI\8o!^xBb.Il_3*X+:(vL3Bmc)$:F51
     P10Guh9  C2018 01 117'v)PxhNtPOt8RAR?%0$?lTEvlCZJ]qR4T\fB1`L:5?l0qe5[i.NF51
     P10Guh9  C2018 02 10CT.sFQSqh$#Y_hUJO(d!VNru=SdK[aYC[NhQ=m.?mb[rkc\/dm76F51
     P10Guh9  C2018 02 10hTD-YYn9#)s+LJH?XBy%*ZwuxZ^'uSo)QVb0%!3.t?ZDASV=R6GgF51
     P10Guh9  C2018 02 10gve!Z'(/4x8eT!vYcredacted;BQ\VOXd,upvC]cse.*m=rE0^T1F51
     P10Guh9 KC2018 02 11Z3gw/Z@H8*T3*08m^:XlxLcqqs/K*C9L@DTBlFL4'*D?x\30N2\8291
     P10Guh9 KC2018 02 11].1F3piv/)@KgdRgx3LwR$Y?4.+qBYehl[WMWAVR_[?#g,2S,62K291
     P10Guh9 KC2018 02 11t1vNTU:B!uTN-O^_4t$k;dGwg3(8an46HCPDE%RM2'fKo:OaUn.K291
     P10Guh9 KC2018 02 12E/N2v0K7$9M]W%\]WcI_Ou.CJoyrXJ=ARP=cUTAn\HQ9'3v^wFwu734
     P10Guh9 KC2018 02 12`JEU#rgM5.Z?KwtZriptt/!b`:_`7?[QCZ-FRtNB].a._\BW%8RyH21
     P10Guh9 KC2018 02 12Sabm_t]6=qwdJLlF/T-q9CnJH`Hb0c$Wseedp^=aU58s9de_M?FyH21
     P10Guh9 KC2018 02 122jG78-9:p#$N5BU+ZLFia_cT#(m+:*4*QKv8?k.vo]1klq%=nZWh734
     P10Guh9 KC2018 02 12`\1bPoP4V08OU!KJ8]o^Ttqi6NF%.`;skhS%BciZ8E5cIM?e.mhZH21
     P10Guh9 KC2018 02 12\X.]7pwRiC1-SpFgbEW%H^AJ45lHKJ0.b`:o`8Gn3=nU%92*Jd]t734
     P10Guh9 KC2018 02 21Srf!x72`S8Fmb,_B-.0J?)p+h2U,oP_B;t-'Z`s'.5gGXuUByXa]291
     P10Guh9 KC2018 02 21NlK:G1cwK+nf%!G:@A$0bKh]'07_qtgcy[d0Db[*0!ce#'wNEOCP291
     P10Guh9  C2018 02 21.97258 11 17 12.67 +24 29 55.9          21.2 VSNEOCP033
     P10Guh9  C2018 02 21.97633 11 17 12.27 +24 29 59.1          21.1 VSNEOCP033
     P10Guh9  C2018 02 21.98009 11 17 11.86 +24 30 02.3          21.9 VSNEOCP033
     P10Guh9  C2018 02 21.98384 11 17 11.46 +24 30 06.0          21.5 VSNEOCP033
     P10Guh9  C2018 02 21.98760 11 17 11.05 +24 30 09.0          22.3 VSNEOCP033
     P10Guh9  C2018 02 22.07222 11 17 02.03 +24 31 22.6          21.7 VSNEOCP033
     P10Guh9  C2018 02 22.07597 11 17 01.61 +24 31 26.1          22.4 VSNEOCP033
     P10Guh9  C2018 02 22.07974 11 17 01.19 +24 31 29.7          22.1 VSNEOCP033
     P10Guh9  C2018 02 22.08349 11 17 00.81 +24 31 32.2          21.8 VSNEOCP033

Station data:
(033) Karl Schwarzschild Observatory, Tautenburg  (N50.980137 E11.711240)
   Germany. 1.3-m Schmidt.
(291) LPL/Spacewatch II  (N31.961626 W111.599100)  US/Arizona.  Observers J.
   V. Scotti, R. S. McMillan. 1.8-m f/2.7 reflector + CCD.
(734) Farpoint Observatory, Eskridge  (N38.890104 W96.001400)  US/Kansas.
   Observer G. Hug. .3 meter s-c + CCD.
(F51) Pan-STARRS 1, Haleakala  (N20.707234 W156.255910)  US/Hawaii.
   Observers N. Primak, A. Schultz, S. Watters, J. Thiel, T. Goggia. Measurer
   PS1 Science Consortium. 1.8-m Ritchey-Chrétien + CCD.
(H21) Astronomical Research Observatory, Westfield  (N39.483054 W87.968270)
   US/Illinois. 0.76-m f/3.0 astrograph + CCD.

Orbital elements:  P10Guh9
   Perihelion 2017 Nov 21.635600 +/- 0.0015 TT = 15:15:15 (JD 2458079.135600)
Epoch 2018 Feb 22.0 TT = JDT 2458171.5   Earth MOID: 0.0503   Ma: 0.0974
M  37.81162 +/- 0.0026              (J2000 ecliptic)          AutoNEOCP
n   0.40937447 +/- 3.11e-5          Peri.  311.63849 +/- 0.0016
a   1.79634139 +/- 9.08e-5          Node   115.30335 +/- 0.0008
e   0.4637008 +/- 2.84e-5           Incl.    8.45027 +/- 0.00055
P   2.41/879.37d           H 22.4   G  0.15   U  5.8  
q 0.96337630 +/- 2.98e-6    Q 2.62930648 +/- 0.000184
From 26 observations 2018 Jan. 11-Feb. 22; mean residual 0".24
Residuals in arcseconds: 
180111 F51  .03-  .13-    180212 734  .33-  .26-    180221 033  .18+  .03-    
180111 F51  .04+  .30+    180212 H21  .10-  .15-    180221 033  .07+  .16-    
180111 F51  .01-  .16-    180212 H21  .45+  .27+    180221 033  .08+  .22+    
180210 F51  .22-  .21-    180212 734  .16-  .06+    180221 033  .02-  .10-    
180210 F51  .01+  .03-    180212 H21  .69+  .59+    180222 033  .40+  .32-    
180210 F51  .17-  .09-    180212 734  .22-  .04+    180222 033  .12+  .05-    
180211 291  .12-  .21-    180221 291  .36-  .39+    180222 033  .13-  .31+    
180211 291  .36+  .05+    180221 291  .17-  .24-    180222 033  .14+  .41-    
180211 291  .12-  .01-    180221 033  .17+  .10+    

Ephemerides (geocentric):
Date (UTC) HH   RA              Dec         delta   r     elong  mag " sig PA
---- -- -- --  ------------   ------------  ------ ------ -----  --- ---- ---
2018 02 22 11  11 16 23.421   +24 37 05.74  .42407 1.3964 160.6 22.1  .13  57
2018 02 22 12  11 16 19.229   +24 37 41.25  .42431 1.3967 160.6 22.1  .13  57
2018 02 22 13  11 16 15.039   +24 38 16.67  .42456 1.3969 160.6 22.1  .13  57
2018 02 22 14  11 16 10.850   +24 38 52.00  .42481 1.3972 160.7 22.1  .13  57
2018 02 22 15  11 16 06.663   +24 39 27.25  .42506 1.3975 160.7 22.1  .13  57
2018 02 22 16  11 16 02.478   +24 40 02.40  .42531 1.3978 160.7 22.1  .13  57
2018 02 22 17  11 15 58.294   +24 40 37.47  .42555 1.3981 160.7 22.1  .13  57
2018 02 22 18  11 15 54.112   +24 41 12.45  .42580 1.3983 160.7 22.1  .13  57
2018 02 22 19  11 15 49.931   +24 41 47.34  .42605 1.3986 160.7 22.1  .13  57
2018 02 22 20  11 15 45.752   +24 42 22.14  .42630 1.3989 160.8 22.1  .13  57
2018 02 22 21  11 15 41.575   +24 42 56.86  .42655 1.3992 160.8 22.1  .14  57
2018 02 22 22  11 15 37.399   +24 43 31.48  .42680 1.3995 160.8 22.1  .14  56
2018 02 22 23  11 15 33.225   +24 44 06.02  .42705 1.3997 160.8 22.1  .14  56
2018 02 23 00  11 15 29.053   +24 44 40.47  .42730 1.4000 160.8 22.1  .14  56
2018 02 23 01  11 15 24.882   +24 45 14.83  .42755 1.4003 160.8 22.1  .14  56
2018 02 23 02  11 15 20.714   +24 45 49.11  .42780 1.4006 160.9 22.1  .14  56
2018 02 23 03  11 15 16.546   +24 46 23.29  .42805 1.4009 160.9 22.1  .14  56
2018 02 23 04  11 15 12.381   +24 46 57.39  .42831 1.4011 160.9 22.1  .14  56
2018 02 23 05  11 15 08.217   +24 47 31.40  .42856 1.4014 160.9 22.1  .14  56
2018 02 23 06  11 15 04.055   +24 48 05.32  .42881 1.4017 160.9 22.1  .14  56
2018 02 23 07  11 14 59.895   +24 48 39.16  .42906 1.4020 160.9 22.1  .14  56
2018 02 23 08  11 14 55.737   +24 49 12.90  .42932 1.4023 160.9 22.1  .15  56
2018 02 23 09  11 14 51.580   +24 49 46.56  .42957 1.4025 161.0 22.1  .15  56
2018 02 23 10  11 14 47.426   +24 50 20.13  .42982 1.4028 161.0 22.1  .15  56
2018 02 23 11  11 14 43.273   +24 50 53.61  .43008 1.4031 161.0 22.1  .15  56
2018 02 23 12  11 14 39.122   +24 51 27.01  .43033 1.4034 161.0 22.1  .15  56
2018 02 23 13  11 14 34.973   +24 52 00.32  .43058 1.4037 161.0 22.1  .15  56
2018 02 23 14  11 14 30.825   +24 52 33.53  .43084 1.4039 161.0 22.1  .15  55
2018 02 23 15  11 14 26.680   +24 53 06.66  .43109 1.4042 161.0 22.1  .15  55
2018 02 23 16  11 14 22.537   +24 53 39.71  .43135 1.4045 161.1 22.1  .15  55
2018 02 23 17  11 14 18.395   +24 54 12.66  .43160 1.4048 161.1 22.1  .15  55
2018 02 23 18  11 14 14.256   +24 54 45.53  .43186 1.4051 161.1 22.1  .15  55
2018 02 23 19  11 14 10.118   +24 55 18.31  .43211 1.4053 161.1 22.1  .16  55
2018 02 23 20  11 14 05.982   +24 55 51.00  .43237 1.4056 161.1 22.1  .16  55
2018 02 23 21  11 14 01.849   +24 56 23.61  .43263 1.4059 161.1 22.1  .16  55
2018 02 23 22  11 13 57.717   +24 56 56.12  .43288 1.4062 161.1 22.1  .16  55
2018 02 23 23  11 13 53.588   +24 57 28.55  .43314 1.4065 161.1 22.1  .16  55
2018 02 24 00  11 13 49.460   +24 58 00.89  .43340 1.4067 161.2 22.1  .16  55
2018 02 24 01  11 13 45.335   +24 58 33.15  .43366 1.4070 161.2 22.1  .16  55
2018 02 24 02  11 13 41.211   +24 59 05.31  .43391 1.4073 161.2 22.1  .16  55
2018 02 24 03  11 13 37.090   +24 59 37.39  .43417 1.4076 161.2 22.1  .16  55
2018 02 24 04  11 13 32.970   +25 00 09.38  .43443 1.4079 161.2 22.1  .16  55
2018 02 24 05  11 13 28.853   +25 00 41.29  .43469 1.4081 161.2 22.1  .16  55
2018 02 24 06  11 13 24.738   +25 01 13.11  .43495 1.4084 161.2 22.1  .17  55
2018 02 24 07  11 13 20.625   +25 01 44.83  .43521 1.4087 161.2 22.1  .17  54
2018 02 24 08  11 13 16.514   +25 02 16.48  .43547 1.4090 161.2 22.1  .17  54
2018 02 24 09  11 13 12.405   +25 02 48.03  .43573 1.4092 161.3 22.1  .17  54
2018 02 24 10  11 13 08.299   +25 03 19.50  .43599 1.4095 161.3 22.1  .17  54